Погода в Октябрьском

Россия / Владимирская область     56°13′11″N   42°02′36″E
темп.,
°C
ветер,
м/с
пор.,
м/с
влажн.,
%
обл.,
%
осадки,
мм/ч
давл.,
гПа
погр.,
м
5 августа, чт
чт500:00+14с226617 0.0 101619
03:00+12зсз1170100 0.0 101711
06:00+15св2258100 0.0 101865
09:00+18всв124924 0.0 1018252
12:00+23ююв223615 0.0 10181617
15:00+24ююв2338100 0.0 10172026
18:00+22всв225199 0.0 101674
21:00+17в3856100 0.0 1016165
6 августа, пт
пт600:00+16юв245994 0.0 101680
03:00+17юв3960100 0.0 1015233
06:00+17юв3962100 0.0 1015318
09:00+19ю4769100 0.3 1015417
12:00+22ююв3662100 0.6 1015678
15:00+18в3787100 1.0 1014175
18:00+16вюв3796100 5.1 1015217
21:00+16в3798100 8.4 1015212
7 августа, сб
сб700:00+16всв3996100 0.1 1014243
03:00+16в51293100 0.1 1013400
06:00+16вюв3795100 0.1 1013238
09:00+18вюв248969 1.1 1013276
12:00+26юв355186 0.2 1013992
15:00+29ю583594 0.2 10121304
18:00+24юв3755100 0.0 1012319
21:00+20ююв31070100 0.0 1013217
8 августа, вс
вс800:00+21вюв3461100 0.0 101476
03:00+19юв31064100 0.0 1014204
06:00+20ююв31158100 0.0 1014272
09:00+26ю474375 0.0 1015518
12:00+29ю463230 0.0 10151071
15:00+30зюз353379 0.0 10151128
18:00+24з3654100 0.0 1016144
21:00+20зсз2279100 0.0 101718
9 августа, пн
пн900:00+20ссз2477100 0.0 101890
03:00+18сз228219 0.0 101933
06:00+18ссз23795 0.0 101978
09:00+24ссз22584 0.0 1019549
12:00+28з124414 0.0 10191368
15:00+29з244181 0.0 10181902
18:00+27з2354100 0.0 101883
21:00+20з11685 0.0 101711